Location: Newark
(37.3333°N, 6.0167°W)
Time: 12:38:00
(UTC+00:00)

LightSail 2 - Pass Details

Date: 16 November 2019
Orbit: 696 x 730 km, 24.0° (Epoch: 14 December)

Event Time Altitude Azimuth Distance (km) Brightness Sun altitude
Exits shadow 03:58:50 12° 141° (SE) 2,086 7.9 -36.8°
Drops below altitude 10° 03:59:21 10° 136° (SE) 2,209 8.1 -36.7°
Sets 04:02:29 0° 118° (ESE) 3,133 9.2 -36.0°
